Probability
0 0 0 0 0 0 0 0 0 0 0 0 0 0 0 0 0 0 0 0 0 0 0 0 0 0 0 0 0 0 0 0 0 0 0 0 0 0 0 0 0 0 0
0 0 0 0 0 0 0 0 0 0 0 0 0 0 0 0 0 0 0 0 0 0 0 0 0 0 0 0 0 0 0 0 0 0 0 0 0 0 0 0 0 0 0
0 0 0 0 0 0 0 0 0 0 0 0 0 0 0 0 0 0 0 0 0 0 0 0 0 0 0 0 0 0 0 0 0 0 0 0 0 0 0 0 0 0 0
0 0 0 0 0 0 0 0 0 0 0 0 0 0 0 0 0 0 0 0 0 0 0 0 0 0 0 0 0 0 0 0 0 0 0 0 0 0 0 0 0 0 0
0 0 0 0 0 0 0 0 0 0 0 0 0 0 0 0 0 0 0 0 0 0 0 0 0 0 0 0 0 0 0 0 0 0 0 0 0 0 0 0 0 0 0
0 0 0 0 0 0 0 0 0 0 0 0 0 0 0 0 0 0 0 0 0 0 0 0 0 0 0 0 0 0 0 0 0 0 0 0 0 0 0 0 0 0 0
0 0 0 0 0 0 0 0 0 0 0 0 0 0 0 0 0 0 0 0 0 0 0 0 0 0 0 0 0 0 0 0 0 0 0 0 0 0 0 0 0 0 0
0 0 0 0 0 0 0 0 0 0 0 0 0 0 0 0 0 0 0 0 0 0 0 0 0 0 0 0 0 0 0 0 0 0 0 0 0 0 0 0 0 0 0
0 0 0 0 0 0 0 0 0 0 0 0 0 0 0 0 0 0 0 0 0 0 0 0 0 0 0 0 0 0 0 0 0 0 0 0 0 0 0 0 0 0 0
0 0 0 0 0 0 0 0 0 0 0 0 0 0 0 0 0 0 0 0 0 0 0 0 0 0 0 0 0 0 0 0 0 0 0 0 0 0 0 0 0 0 0
0 0 0 0 0 0 0 0 0 0 0 0 0 0 0 0 0 0 0 0 0 0 0 0 0 0 0 0 0 0 0 0 0 0 0 0 0 0 0 0 0 0 0
0 0 0 0 0 0 0 0 0 0 0 0 0 0 0 0 0 0 0 0 0 0 0 0 0 0 0 0 0 0 0 0 0 0 0 0 0 0 0 0 0 0 0
0 0 0 0 0 0 0 0 0 0 0 0 0 0 0 0 0 0 0 0 0 0 0 0 0 0 0 0 0 0 0 0 0 0 0 0 0 0 0 0 0 0 0
0 0 0 0 0 0 0 0 0 0 0 0 0 0 0 0 0 0 0 0 0 0 0 0 0 0 0 0 0 0 0 0 0 0 0 0 0 0 0 0 0 0 0
0 0 0 0 0 0 0 0 0 0 0 0 0 0 0 0 0 0 0 0 0 0 0 0 0 0 0 0 0 0 0 0 0 0 0 0 0 0 0 0 0 0 0
0 0 0 0 0 0 0 0 0 0 0 0 0 0 0 0 0 0 0 0 0 0 0 0 0 0 0 0 0 0 0 0 0 0 0 0 0 0 0 0 0 0 0
0 0 0 0 0 0 0 0 0 0 0 0 0 0 0 0 0 0 0 0 0 0 0 0 0 0 0 0 0 0 0 0 0 0 0 0 0 0 0 0 0 0 0
0 0 0 0 0 0 0 0 0 0 0 0 0 0 0 0 0 0 0 0 0 0 0 0 0 0 0 0 0 0 0 0 0 0 0 0 0 0 0 0 0 0 0
0 0 0 0 0 0 0 0 0 0 0 0 0 0 0 0 0 0 0 0 0 0 0 0 0 0 0 0 0 0 0 0 0 0 0 0 0 0 0 0 0 0 0
0 0 0 0 0 0 0 0 0 0 0 0 0 0 0 0 0 0 0 0 0 0 0 0 0 0 0 0 0 0 0 0 0 0 0 0 0 0 0 0 0 0 0
0 0 0 0 0 0 0 0 0 0 0 0 0 0 0 0 0 0 0 0 0 0 0 0 0 0 0 0 0 0 0 0 0 0 0 0 0 0 0 0 0 0 0
0 0 0 0 0 0 0 0 0 0 0 0 0 0 0 0 0 0 0 0 0 0 0 0 0 0 0 0 0 0 0 0 0 0 0 0 0 0 0 0 0 0 0
0 0 0 0 0 0 0 0 0 0 0 0 0 0 0 0 0 0 0 0 0 0 0 0 0 0 0 0 0 0 0 0 0 0 0 0 0 0 0 0 0 0 0
0 0 0 0 0 0 0 0 0 0 0 0 0 0 0 0 0 0 0 0 0 0 0 0 0 0 0 0 0 0 0 0 0 0 0 0 0 0 0 0 0 0 0
0 0 0 0 0 0 0 0 0 0 0 0 0 0 0 0 0 0 0 0 0 0 0 0 0 0 0 0 0 0 0 0 0 0 0 0 0 0 0 0 0 0 0
0 0 0 0 0 0 0 0 0 0 0 0 0 0 0 0 0 0 0 0 0 0 0 0 0 0 0 0 0 0 0 0 0 0 0 0 0 0 0 0 0 0 0
Wind_Speed
3 2 2 2 2 2 2 2 2 3 3 4 3 4 5 5 5 4 4 12 15 16 17 18 18 18 18 17 17 17 16 16 16 16 16 16 16 16 16 16 16 15 15
3 3 2 2 2 2 2 2 3 3 3 3 4 5 5 5 5 5 5 7 13 16 17 18 18 18 18 18 18 17 17 17 17 17 17 17 18 18 18 18 18 18 17
3 3 2 2 2 2 2 2 2 2 3 3 4 5 4 5 5 6 6 4 6 11 15 16 16 16 17 17 17 17 17 17 17 18 18 18 18 19 19 19 19 19 19
3 2 2 2 2 1 1 1 1 1 2 3 3 4 4 4 6 6 5 5 4 4 8 13 14 14 14 15 15 16 16 17 17 18 18 18 19 19 20 20 20 20 20
2 2 1 1 0 0 0 1 1 1 2 3 4 4 4 5 5 5 5 5 4 4 3 7 10 12 13 14 15 15 16 16 17 18 18 19 19 19 20 20 21 21 21
2 2 1 0 1 1 0 0 1 1 2 2 4 4 5 5 4 4 4 4 3 3 3 3 4 6 11 14 15 16 17 17 18 18 18 19 19 20 20 20 21 22 22
2 2 1 1 1 1 0 0 0 1 2 1 2 4 4 4 4 3 3 3 3 3 3 3 3 3 4 12 15 17 18 19 19 19 19 20 20 21 21 21 22 22 23
2 2 2 1 1 1 1 1 1 1 1 1 1 2 5 6 4 3 3 3 4 3 4 4 4 5 4 4 10 18 19 19 20 20 21 21 22 22 22 22 23 23 23
2 2 2 2 1 1 0 0 0 1 1 1 1 1 1 4 4 4 4 3 3 3 4 5 6 6 6 5 6 12 18 19 20 21 21 21 22 23 23 23 23 23 24
2 2 2 2 2 1 0 0 1 1 2 1 1 2 3 3 3 5 4 4 4 5 5 6 7 7 7 6 9 16 19 20 21 21 22 22 22 23 23 24 24 24 24
2 2 2 2 1 1 1 1 1 1 2 2 2 2 2 2 4 5 6 5 4 4 5 6 7 7 7 6 6 11 19 20 21 22 22 22 23 23 24 24 24 25 25
0 1 1 1 0 1 1 2 2 2 2 3 3 3 3 3 3 4 6 6 6 4 5 6 6 6 6 6 8 17 20 21 22 22 23 23 23 24 24 25 25 25 25
1 1 0 1 1 1 2 2 2 3 3 3 4 4 4 5 4 4 5 6 6 4 5 4 5 5 6 5 6 17 19 22 23 23 24 23 24 24 24 25 25 26 26
2 2 1 2 2 2 2 2 2 3 3 4 5 5 4 5 4 4 4 4 7 5 4 6 4 5 5 4 10 20 12 22 23 24 24 24 24 24 24 25 25 25 26
2 2 2 2 2 3 3 3 3 4 4 4 5 6 5 5 4 5 5 4 5 7 7 5 4 4 4 5 13 9 8 18 24 24 24 24 24 25 25 25 25 25 25
2 2 3 3 3 3 4 3 4 4 5 5 4 5 6 5 5 5 5 5 6 7 9 4 5 6 8 10 15 11 9 22 23 23 24 24 24 24 25 25 25 25 25
3 3 3 3 4 4 4 4 5 5 6 6 6 6 7 6 5 5 5 5 6 6 12 9 5 6 8 10 10 9 9 9 10 21 23 24 24 24 24 24 24 24 24
4 4 4 4 5 5 5 5 6 6 6 7 7 7 8 6 7 6 6 7 7 7 9 14 8 6 8 8 10 10 10 9 7 18 23 24 24 24 23 23 23 22 22
4 4 4 5 5 6 6 6 6 7 7 8 8 8 9 8 9 7 7 7 7 8 8 10 11 7 7 7 8 9 10 8 10 14 19 21 22 23 23 22 22 21 20
4 5 5 5 6 6 6 7 7 7 8 9 9 9 9 9 10 9 8 9 8 9 9 10 11 8 7 7 6 7 8 6 8 9 13 16 19 22 22 22 22 21 20
5 5 5 6 6 5 6 7 7 8 9 9 9 9 10 13 16 13 10 8 8 8 8 9 10 9 7 6 6 6 9 8 8 8 8 8 8 7 10 16 19 19 20
5 5 6 6 7 6 12 16 13 8 8 9 9 9 9 12 16 20 22 21 17 11 9 9 10 10 10 8 7 7 8 10 9 4 5 7 5 7 7 6 15 20 20
5 6 6 6 8 10 16 18 19 11 8 8 8 8 9 9 15 9 15 21 19 22 22 14 12 12 11 9 9 11 10 11 11 6 6 9 6 8 7 9 19 20 20
5 6 7 7 8 11 17 19 20 11 8 8 9 9 10 10 10 12 10 11 12 12 15 11 11 12 11 10 11 12 12 11 9 6 6 8 6 7 7 6 15 19 18
5 6 6 7 8 11 17 20 20 8 7 9 9 9 10 10 17 22 15 12 12 11 16 22 22 20 21 21 17 8 7 8 9 6 4 5 5 5 5 6 9 14 15
6 6 7 7 9 10 16 20 20 7 8 8 8 9 16 17 21 23 14 11 13 11 9 11 13 14 12 13 18 9 6 7 8 6 4 4 3 3 4 3 3 4 6
Wind_Direction
188 196 207 217 230 229 236 250 262 276 283 286 281 276 281 281 278 272 277 291 298 301 304 305 304 303 302 300 297 295 291 288 285 281 278 275 271 269 267 264 262 261 261
184 189 206 220 235 233 238 244 256 268 275 279 285 282 277 278 275 274 269 284 292 298 302 305 306 305 303 301 299 296 293 290 287 285 283 281 277 273 270 266 262 259 257
186 187 202 225 237 232 235 244 260 264 276 280 282 284 279 274 273 272 272 267 280 293 301 306 309 310 309 306 303 300 297 294 291 288 286 283 281 279 276 272 268 264 259
178 177 197 232 242 226 223 240 251 272 278 283 284 284 280 277 273 271 270 270 272 280 297 308 315 319 321 318 313 309 305 301 297 293 288 285 282 281 279 277 274 270 266
150 158 188 228 212 182 224 257 246 240 279 292 288 282 277 273 274 280 282 284 282 280 280 304 319 327 329 327 323 319 313 307 303 299 295 290 286 282 280 278 277 275 271
121 127 126 78 81 89 359 321 280 268 264 287 297 293 283 280 285 286 289 295 293 291 291 294 309 319 328 329 327 322 316 311 306 302 299 295 291 286 282 279 278 276 275
95 105 101 83 80 109 225 333 338 324 309 334 335 318 306 304 309 292 290 296 308 317 318 311 302 298 313 321 323 317 313 309 304 300 298 295 292 288 285 281 278 276 275
94 107 109 105 98 96 43 38 61 10 317 11 25 340 333 334 335 325 322 313 315 323 321 319 316 309 298 294 302 312 311 305 301 298 295 292 289 286 283 281 278 276 274
86 92 100 102 96 106 86 7 141 168 269 307 212 197 292 292 305 307 308 304 304 307 309 312 303 297 294 290 293 302 303 303 300 297 294 291 289 286 283 280 278 276 274
74 83 93 97 98 105 122 264 168 189 190 254 281 235 222 225 273 303 303 299 305 298 294 295 292 288 283 281 283 295 300 300 298 297 295 293 291 288 286 283 281 279 276
60 75 95 102 109 134 200 231 229 212 198 210 222 234 249 248 229 251 282 294 298 271 270 274 277 278 278 276 277 286 296 298 297 296 295 294 292 290 288 287 285 283 280
23 48 98 111 163 213 239 240 233 232 225 226 226 215 214 227 228 232 263 279 282 271 267 265 266 270 274 276 281 295 299 299 298 296 294 293 291 290 289 287 285 283 281
225 249 194 221 240 246 250 242 239 245 236 232 233 231 227 230 228 231 258 279 282 279 268 262 258 268 277 278 288 299 299 299 297 294 293 291 290 289 287 285 283 282 281
215 222 231 243 253 258 258 247 245 248 239 238 246 243 240 242 232 226 235 270 292 283 260 263 270 261 273 284 289 299 295 296 296 294 292 290 288 287 286 284 282 281 279
215 220 234 250 259 260 258 254 249 255 250 246 247 247 245 246 239 236 233 227 253 286 286 251 259 267 277 285 289 289 278 291 295 293 291 290 289 287 286 284 282 280 279
215 228 245 252 259 262 259 253 256 256 255 254 247 248 249 248 245 239 237 236 231 256 278 257 252 268 280 286 290 291 285 294 296 295 293 291 289 288 287 284 282 280 278
221 233 243 250 256 260 258 253 255 259 257 261 258 253 255 252 250 248 242 241 242 244 270 278 255 261 264 271 281 281 279 277 281 290 292 290 289 288 286 284 283 280 278
232 237 244 250 256 257 255 252 260 261 257 261 262 258 260 259 252 249 246 246 248 244 260 280 282 272 266 267 271 274 281 280 275 286 290 290 289 288 286 285 283 282 281
240 245 244 250 256 257 257 254 253 258 256 256 257 256 259 257 258 255 249 251 253 256 253 269 281 276 271 268 271 273 273 275 278 283 288 289 289 288 287 286 284 284 283
242 249 250 252 255 259 259 260 258 257 258 257 254 252 253 250 254 256 257 253 253 257 258 265 276 278 272 264 263 272 280 270 274 279 281 283 284 287 288 288 287 286 285
247 250 256 261 261 261 258 256 252 252 253 258 257 252 251 257 261 265 264 254 250 256 262 269 276 280 277 274 268 267 279 281 272 265 268 271 277 275 280 283 286 284 282
256 256 257 261 265 267 279 285 285 263 254 256 261 259 259 269 274 278 280 281 277 271 268 268 274 276 277 272 273 273 281 285 285 250 254 269 264 270 268 260 272 277 277
257 262 263 261 264 270 284 290 290 287 267 260 260 263 269 268 280 269 275 280 281 279 276 273 272 272 274 270 271 275 271 271 274 268 269 278 263 267 266 270 277 279 279
257 262 266 265 267 275 288 293 295 290 272 264 261 260 263 266 265 272 261 260 258 261 266 270 263 264 265 264 259 266 272 274 270 262 250 272 269 265 272 266 276 278 279
266 264 265 267 269 278 289 294 295 281 271 267 263 261 265 263 272 282 279 270 268 263 270 272 271 273 275 282 285 282 275 280 282 272 230 246 264 271 272 268 272 280 282
267 273 274 269 267 272 285 293 295 281 275 274 268 262 273 278 282 285 279 272 275 272 264 269 271 275 277 280 284 275 264 272 278 278 235 232 255 276 285 264 270 287 292